{"data":{"norad_id":57417,"epoch":"2026-09-20T07:23:58.580160Z","epoch_age_seconds":144421,"freshness":"FRESH","line1":"1 57417U 23102P   26263.30831690  .00001304  00000+0  56895-4 0  9995","line2":"2 57417  43.0025 229.5364 0001344 269.0888  90.9810 15.27578312176006","mean_motion":15.27578312,"eccentricity":0.0001344,"inclination_deg":43.0025,"raan_deg":229.5364,"arg_perigee_deg":269.0888,"mean_anomaly_deg":90.981,"bstar":5.6895e-5,"rev_number":17600,"period_min":94.266852880011,"perigee_km":482.13200643293,"apogee_km":483.97629461419,"semimajor_km":6861.1911505236,"source":"CELESTRAK","updated_at":"2026-09-21T09:00:33.625338Z"}}